Weather in Ibrat

Uzbekistan     40°33′23″N   71°08′34″E
temp.,
°C
wind,
m/s
gust,
m/s
humid.,
%
clouds,
%
prec.,
mm/h
press.,
hPa
HPBL,
m
3 march, wed
wed323:00+11ne1228100 0.0 102422
02:00+10n1232100 0.0 102333
05:00+9sw1164100 0.2 102351
08:00+9s1267100 0.3 1023197
11:00+10ne2159100 0.4 1022433
14:00+12n3358100 0.1 1020777
17:00+11nne4563100 0.1 1021474
20:00+8ne367694 0.0 1024241
4 march, thu
thu423:00+7nne238389 0.0 1024102
02:00+6ene128968 0.0 102325
05:00+5se119073 0.0 102322
08:00+7nne118197 0.0 102450
11:00+12ene345284 0.0 1020770
14:00+15ene3336100 0.0 10181231
17:00+14se1136100 0.0 1019951
20:00+12wsw2350100 0.1 102190
5 march, fri
fri523:00+10sse5768100 0.8 1023334
02:00+10ssw51077100 1.3 1023812
05:00+10wsw71562100 1.9 1025729
08:00+9wsw101551100 0.0 1027838
11:00+13wsw9113496 0.0 1026945
14:00+15w452879 0.0 10251418
17:00+14n113176 0.0 10251185
20:00+11ne343926 0.0 1027110
6 march, sat
sat623:00+9ene376213 0.0 1027175
02:00+7ene34640 0.0 1024100
05:00+6ese126228 0.0 102227
08:00+7e225625 0.0 1019100
11:00+12ene343262 0.0 1012687
14:00+16ene011996 0.0 10091014
17:00+15w342198 0.0 1010810
20:00+12w3634100 0.0 1012201
7 march, sun
sun723:00+11wnw2438100 0.0 1014134
02:00+10w0145100 0.0 101425
05:00+9wsw4855100 0.0 1015233
08:00+9wsw71167100 0.0 1016506
11:00+12w8951100 0.0 1016864
14:00+14w774079 0.0 1015951
17:00+13w664373 0.0 1015711
20:00+10w485538 0.0 1018278